Location: Brownlee
(50.7397°N, 106.0159°W)
Time: 08:06:57
(UTC+00:00)

Envisat - Pass Details

Date: 09 December 2022
Orbit: 763 x 765 km, 98.2° (Epoch: 04 February)

Event Time Altitude Azimuth Distance (km) Brightness Sun altitude
Rises 12:14:51 0° 9° (N) 3,247 6.3 -23.9°
Reaches altitude 10° 12:17:16 10° 3° (N) 2,316 5.4 -23.6°
Enters shadow 12:19:29 24° 348° (NNW) 1,553 4.4 -23.2°
